Find Starlink 32748

NORAD ID: 62524 Int'l Des: 2025-004 Owner: SPXS Country: US Constellation: starlink operational
LEOCIRCULAR

实时位置

正在加载3D地球...

关于 Starlink 32748

正在加载描述...

即将过境

Passes for default location (London). Set your location on the main map for personalized predictions.

高度历史

Loading altitude history...

两行轨道根数

1 62524U 25004P 26125.79145839 .00029236 00000-0 10669-2 0 9998
2 62524 42.9999 257.2157 0001433 273.2550 86.8138 15.27605747 75197
Epoch: May 5, 2026 • Age: 5 hours

当前状态

高度 484.8 km
速度 7.63 km/s
星下点 33.22°N, 77.47°E
发射日期 Jan 8, 2025
运行时间 1.3 years
类型 internet

技术详情

分类 Payload
质量 730.00 kg
干质量 700.00 kg
总质量 730.00 kg
长度 0.30 m
直径 4.10 m
跨度 29.00 m
形状 Box + pan
制造商 SPXS
平台类型 Starlink V2M
阶段状态 In Orbit
所有者/国家 SPXS/US

Most Searched